Weather in Goluboye

Russia / Amur Oblast     51°47′04″N   127°58′07″E
temp.,
°C
wind,
m/s
gust,
m/s
humid.,
%
clouds,
%
prec.,
mm/h
press.,
hPa
HPBL,
m
6 may, thu
thu600:00+5e229518 0.5 99628
03:00+5ne249784 0.6 996100
06:00+4ne3690100 0.0 998299
09:00+5ne2480100 0.1 999404
12:00+10nnw135798 0.0 10001240
15:00+11wnw345092 0.1 9991582
18:00+10wnw3464100 0.6 1000889
21:00+7wnw267958 0.8 1002153
7 may, fri
fri700:00+5nw228051 0.0 100213
03:00+6wnw1178100 0.0 100218
06:00+5ne238099 0.0 100181
09:00+8nne33726 0.1 1001413
12:00+11ne4452100 0.1 10001812
15:00+11ne454895 0.3 9981811
18:00+10nne685396 0.0 9981353
21:00+8ne61154100 0.0 999740
8 may, sat
sat800:00+5nne51260100 0.0 998605
03:00+3n61265100 0.0 998563
06:00+2nne71262100 0.0 998703
09:00+4nne71054100 0.0 998964
12:00+8nne794298 0.0 9981569
15:00+10nne6839100 0.0 9972088
18:00+6nne696699 0.0 9991170
21:00+5nne696371 0.0 1000975
9 may, sun
sun900:00+2n5106798 0.0 1000581
03:00+1nne5969100 0.0 1000643
06:000n51083100 0.0 1001576
09:00+3n5766100 0.3 1001829
12:00+7n5654100 0.0 10011344
15:00+9n4651100 0.1 10011618
18:00+9n4555100 0.1 10021289
21:00+6nw3667100 0.1 1003167
10 may, mon
mon1000:00+4n3777100 0.0 1005253
03:00+2n378586 0.0 1006226
06:00+2nnw3578100 0.0 1007221
09:00+6nne2365100 0.0 1008704
12:00+7nne336690 0.0 1009683
15:00+10ne2256100 0.0 10091062
18:00+9ne2257100 0.0 1010888
21:00+7n237199 0.0 101272